Weather History for KPIR - January, 2014

Change the Weather History Date:

Monday, January 27, 2014

  Actual Average Record
Temperature  
Mean Temperature 2 °F 20 °F  
Max Temperature 9 °F 31 °F 61 °F (1934)
Min Temperature -5 °F 10 °F -23 °F (1948)
Degree Days  
Heating Degree Days 63 44  
Month to date heating degree days 1181 1219  
Since 1 July heating degree days 4400 4181  
Cooling Degree Days 0 0  
Month to date cooling degree days 0 0  
Year to date cooling degree days 0 0  
Moisture  
Dew Point -10 °F    
Average Humidity 59    
Maximum Humidity 72    
Minimum Humidity 45    
Precipitation  
Precipitation 0.00 in 0.02 in 0.95 in (1944)
Month to date precipitation 0.09 0.37  
Year to date precipitation 0.09 0.37  
Snow  
Snow 0.00 in 0.10 in 2.50 in (1944)
Month to date snowfall 1.0 4.1  
Since 1 July snowfall 17.2 15.3  
Snow Depth T in    
Sea Level Pressure  
Sea Level Pressure 30.51 in    
Wind  
Wind Speed 11 mph (NNW)    
Max Wind Speed 23 mph    
Max Gust Speed 29 mph    
Visibility 10 miles    
Events      
T = Trace of Precipitation, MM = Missing Value Source: NWS Daily Summary

Daily Weather History Graph

Daily Weather History Graph

Search for Another Location

Airport or City:

Trip Planner

Search our weather history database for the weather conditions in past years. The results will help you decide how hot, cold, wet, or windy it might be!

Date:

Astronomy

Jan. 27, 2014 Rise Set
Actual Time 8:04 AM CST 5:43 PM CST
Civil Twilight 7:33 AM CST 6:15 PM CST
Nautical Twilight 6:58 AM CST 6:50 PM CST
Astronomical Twilight 6:23 AM CST 7:24 PM CST
Moon 4:49 AM CST (1/27) 2:29 PM CST (1/27)
Length of Visible Light 10h 41m
Length of Day
9h 39m
Waning Crescent, 14% of the Moon is Illuminated
Jan 27
Waning Crescent
Jan 30
New
Feb 6
First Quarter
Feb 14
Full
Feb 22
Last Quarter

Hourly Weather History & Observations

Time (CST) Temp. Windchill Dew Point Humidity Pressure Visibility Wind Dir Wind Speed Gust Speed Precip Events Conditions
12:53 AM 1.0 °F -18.0 °F -9.9 °F 60% 30.45 in 10.0 mi NNW 15.0 mph - N/A   Clear
1:53 AM -0.0 °F -21.3 °F -9.0 °F 66% 30.45 in 10.0 mi NW 18.4 mph - N/A   Clear
2:53 AM -0.0 °F -21.3 °F -9.9 °F 63% 30.47 in 10.0 mi NNW 18.4 mph 25.3 mph N/A   Clear
3:53 AM -0.9 °F -17.4 °F -9.0 °F 69% 30.50 in 10.0 mi NNW 10.4 mph - N/A   Clear
4:53 AM -0.9 °F -20.6 °F -11.0 °F 62% 30.51 in 10.0 mi NNW 15.0 mph 21.9 mph N/A   Clear
5:53 AM -2.0 °F -20.5 °F -9.9 °F 69% 30.51 in 10.0 mi NW 12.7 mph - N/A   Clear
6:53 AM -2.9 °F -23.1 °F -11.9 °F 65% 30.52 in 10.0 mi North 15.0 mph - N/A   Clear
7:53 AM -4.0 °F -16.3 °F -13.0 °F 65% 30.54 in 10.0 mi NNW 5.8 mph - N/A   Clear
8:53 AM -2.0 °F -21.2 °F -11.0 °F 66% 30.55 in 10.0 mi NNW 13.8 mph - N/A   Clear
9:53 AM -0.9 °F -20.6 °F -13.0 °F 57% 30.56 in 10.0 mi NNW 15.0 mph - N/A   Clear
10:53 AM 1.9 °F -14.7 °F -11.0 °F 55% 30.57 in 10.0 mi NNW 11.5 mph - N/A   Clear
11:53 AM 3.0 °F -14.8 °F -11.9 °F 50% 30.56 in 10.0 mi NNW 13.8 mph - N/A   Clear
12:53 PM 5.0 °F -10.8 °F -9.9 °F 50% 30.53 in 10.0 mi NW 11.5 mph - N/A   Clear
1:53 PM 7.0 °F -9.8 °F -9.9 °F 46% 30.51 in 10.0 mi WNW 13.8 mph - N/A   Clear
2:53 PM 8.1 °F -9.0 °F -9.0 °F 46% 30.49 in 10.0 mi NW 15.0 mph 19.6 mph N/A   Clear
3:53 PM 8.1 °F -7.7 °F -9.0 °F 46% 30.48 in 10.0 mi NW 12.7 mph - N/A   Clear
4:53 PM 8.1 °F -6.2 °F -9.0 °F 46% 30.49 in 10.0 mi NNW 10.4 mph - N/A   Clear
5:53 PM 5.0 °F -6.9 °F -8.0 °F 55% 30.49 in 10.0 mi North 6.9 mph - N/A   Clear
6:53 PM 3.0 °F -9.3 °F -8.0 °F 60% 30.50 in 10.0 mi North 6.9 mph - N/A   Clear
7:53 PM 1.9 °F -9.2 °F -8.0 °F 63% 30.51 in 10.0 mi North 5.8 mph - N/A   Clear
8:53 PM 1.0 °F -8.7 °F -8.0 °F 66% 30.52 in 10.0 mi NNE 4.6 mph - N/A   Clear
9:53 PM -0.0 °F -9.9 °F -9.0 °F 66% 30.52 in 10.0 mi North 4.6 mph - N/A   Clear
10:53 PM -0.9 °F - -8.0 °F 72% 30.52 in 10.0 mi Calm Calm - N/A   Clear
11:53 PM -2.0 °F -10.1 °F -9.9 °F 69% 30.51 in 10.0 mi WNW 3.5 mph - N/A   Clear